Location: Aichau
(48.2667°N, 15.2667°E)
Time: 22:58:24
(UTC+00:00)

Daily predictions for brighter satellites

Satellite Brightness Start Highest point End
(mag) Time Altitude Azimuth Time Altitude Azimuth Time Altitude Azimuth
USA 215 3.3 16:52:46 10° NE 16:59:20 77° SE 17:05:53 10° SW
Cosmos 1850 Rocket 4.1 16:56:44 10° S 17:01:52 62° ESE 17:07:06 10° NNE
Cosmos 2279 Rocket 4.0 16:56:40 10° N 17:02:58 79° E 17:09:14 10° SSE
Cosmos 2369 3.7 16:58:30 10° SSW 17:04:13 80° ESE 17:09:57 10° NNE
SL-08 RB Rocket 4.4 17:00:01 10° S 17:04:35 63° W 17:09:13 10° NNW
Cosmos 1733 Rocket 3.1 17:00:44 10° S 17:05:08 65° E 17:09:34 10° NNE
BREEZE-M DEB (TANK) 4.1 17:01:39 10° SW 17:05:49 55° SE 17:21:20 10° ENE
Cosmos 1844 Rocket 3.9 17:01:49 10° N 17:06:21 24° NE 17:10:52 10° E
COBE Rocket 4.1 17:03:43 10° SE 17:08:19 46° ENE 17:12:51 10° N
Cosmos 2221 Rocket 3.6 17:05:07 10° N 17:09:40 73° E 17:14:12 10° SSE
Cosmos 2278 4.0 17:04:39 10° S 17:10:04 48° ESE 17:15:31 10° NE
SL-16 R/B 3.2 17:06:43 10° SSE 17:11:12 25° ESE 17:15:42 10° NE
PAYLOAD B 4.2 17:08:06 10° SSE 17:13:36 77° ENE 17:19:06 10° NNW
CZ-4B DEB 4.4 17:09:33 10° SSE 17:15:01 82° WSW 17:20:32 10° NNW
SKYMED 3 4.4 17:11:42 10° NNE 17:15:49 68° ESE 17:19:54 10° S
BREEZE-M DEB (TANK) 2.6 17:17:30 10° W 17:19:35 46° SSW 17:22:42 10° SE
COSMO-SKYMED 1 2.7 17:20:59 10° NNE 17:25:21 81° WNW 17:29:42 10° SSW
Cosmos 2263 Rocket 2.4 17:20:22 10° NNW 17:26:05 79° WSW 17:31:46 10° SSE
Meteor 1-24 Rocket 4.2 17:22:50 10° N 17:27:39 34° ENE 17:32:30 10° SE
SJ-6B 4.3 17:26:35 14° E 17:28:15 18° ENE 17:30:52 10° NNE
Cosmos 1437 Rocket 3.3 17:27:01 10° SSE 17:30:21 31° E 17:33:41 10° NNE
Spot 1 3.9 17:26:40 10° NNE 17:30:51 69° ESE 17:34:54 10° S
ASTEX 1 3.5 17:26:24 10° N 17:31:25 84° W 17:36:25 10° S
HJ-1C 3.3 17:29:07 10° SSE 17:32:09 53° ENE 17:35:12 10° N
Cosmos 1741 Rocket 4.2 17:28:05 10° SSW 17:33:22 79° WNW 17:38:39 10° NNE
Feng Yun 1-1 Rocket 4.3 17:29:47 10° SE 17:35:04 52° ENE 17:40:18 10° N
USA 267 3.5 17:28:41 10° SE 17:35:14 72° SW 17:41:48 10° WNW
IRIDIUM 104 4.3 17:30:24 10° S 17:35:32 63° E 17:40:42 10° N
Cosmos 1814 Rocket 4.0 17:32:15 10° NNW 17:37:33 85° ENE 17:42:44 10° SSE
SL-4 R/B 2.5 17:34:05 10° WNW 17:38:28 65° SSW 17:42:27 14° SE
Cosmos 1844 4.5 17:35:57 10° NNW 17:40:56 32° NE 17:44:18 18° ESE
Cosmos 2084 Rocket 3.6 17:37:20 10° NNW 17:41:01 44° NE 17:43:23 20° ESE
Cosmos 1805 4.2 17:38:05 10° SSW 17:41:52 51° WNW 17:45:41 10° N
Cosmos 2208 Rocket 4.2 17:36:58 10° NNW 17:42:16 54° ENE 17:47:35 10° SE
Cosmos 1242 Rocket 4.4 17:39:58 10° SW 17:43:14 34° WNW 17:46:30 10° N
Cosmos 2227 4.2 17:37:45 10° NNW 17:43:25 87° ENE 17:49:03 10° SSE
IRIDIUM 114 4.2 17:39:27 10° S 17:44:40 76° E 17:49:53 10° N
Okean-O 3.7 17:42:56 19° ESE 17:45:02 27° ENE 17:48:44 10° N
Cosmos 489 Rocket 4.4 17:40:18 10° SSW 17:46:37 75° ESE 17:52:58 10° NNE
CZ-4 R/B 1.4 17:43:34 10° SSE 17:47:42 68° ENE 17:51:53 10° N
ISS -1.5 17:45:31 10° W 17:48:08 21° SW 17:50:43 10° S
Cosmos 1697 Rocket 4.5 17:43:58 10° WSW 17:48:57 32° NW 17:53:59 10° NNE
IGS 5A 4.3 17:48:12 21° ESE 17:49:57 29° ENE 17:53:33 10° N
Meteor 1-12 Rocket 4.3 17:44:57 10° S 17:50:55 73° E 17:56:57 10° NNE
BREEZE M DEB (TANK) 3.5 17:45:41 10° SW 17:51:43 29° SSE 17:53:03 23° ESE
Cosmos 1908 Rocket 3.4 17:49:09 10° S 17:53:27 72° E 17:57:47 10° NNE
OBJECT-B 1.5 17:54:14 24° NE 17:54:14 24° NE 17:55:48 10° N
IRIDIUM 103 4.3 17:48:35 10° S 17:53:48 90° E 17:59:03 10° N
Meteor 2-21 4.5 17:48:02 10° S 17:54:03 83° W 18:00:09 10° N
Cosmos 2360 Rocket 3.0 17:51:13 10° SSE 17:55:48 26° ESE 18:00:23 10° NE
USA 81 4.4 17:53:06 10° N 17:58:10 44° ENE 18:02:40 13° SSE
Cosmos 1782 Rocket 3.7 17:57:30 10° SSE 18:01:40 47° E 18:05:53 10° NNE
Cosmos 1766 3.7 17:57:48 10° SSW 18:01:41 64° WNW 18:05:37 10° N
Cosmos 1025 Rocket 3.2 18:01:47 10° N 18:05:58 46° ENE 18:07:57 27° SE
YAOGAN 1 3.2 18:01:47 10° S 18:06:02 57° W 18:10:18 10° NNW
Cosmos 2026 Rocket 4.0 18:01:50 10° SSE 18:07:41 54° E 18:13:35 10° NNE
Cosmos 968 Rocket 3.4 18:03:19 10° SSW 18:08:35 79° ESE 18:13:49 10° NNE
ATLAS 2AS CENTAUR R/B 4.4 18:02:54 10° NW 18:08:42 24° N 18:14:11 10° NE
Okean O Rocket 2.0 18:05:32 10° S 18:09:51 64° WSW 18:14:14 10° NNW
Lacrosse 4 Rocket 1.7 18:09:36 10° S 18:13:27 41° ESE 18:13:56 39° E
Nadezhda 4 Rocket 4.3 18:09:18 10° SSW 18:15:37 71° W 18:21:57 10° N
Meteor 2-5 Rocket 3.6 18:10:07 10° NNW 18:15:41 90° ENE 18:21:14 10° S
CSL-04 Rocket 3.7 18:13:27 21° SE 18:17:00 60° ENE 18:22:20 10° N
Meteor 1-15 Rocket 4.2 18:11:48 10° SSW 18:17:22 83° W 18:22:59 10° N
Cosmos 1553 Rocket 4.3 18:12:41 10° N 18:18:48 46° ENE 18:21:53 27° SE
USA 186 1.7 18:22:42 69° ESE 18:22:54 72° ENE 18:26:17 10° N
Cosmos 1726 4.4 18:20:55 10° SW 18:24:01 26° WNW 18:27:10 10° NNW
Cosmos 2322 Rocket 2.1 18:18:52 10° SSW 18:24:29 63° ESE 18:30:09 10° NNE
Cosmos 2237 4.1 18:19:27 10° SSW 18:25:06 66° ESE 18:30:45 10° NNE
Landsat 7 4.0 18:25:23 42° ESE 18:26:21 49° ENE 18:30:54 10° N
SPOT 1/Viking Rocket 4.3 18:27:16 31° ENE 18:27:23 31° ENE 18:31:53 10° N
Cosmos 1470 2.8 18:24:38 10° SSW 18:28:29 77° W 18:32:20 10° N
deb Chang Zheng 4 4.3 18:29:31 34° NE 18:29:31 34° NE 18:32:45 10° N
Cosmos 1975 Rocket 2.9 18:26:37 10° N 18:31:03 88° E 18:33:09 31° S
Cosmos 1980 Rocket 4.0 18:26:11 10° WSW 18:31:05 30° NW 18:36:00 10° NNE
NOSS 3-3 (A) 4.1 18:27:06 10° S 18:32:14 40° ESE 18:32:26 39° ESE
NOSS 3-3 (C) 4.2 18:27:13 10° S 18:32:20 39° ESE 18:32:21 39° ESE
Ariane Rocket 4.3 18:36:14 24° NE 18:36:14 24° NE 18:39:34 10° N
CRYOSAT 2 4.3 18:34:18 17° S 18:38:03 89° E 18:42:59 10° N
Cosmos 2292 Rocket 4.4 18:33:46 10° SSW 18:38:42 52° W 18:42:31 10° N
USA 215 3.9 18:36:54 15° NE 18:42:13 52° NNW 18:48:29 10° W
Aureole 1 Rocket 4.3 18:35:20 10° S 18:42:18 45° ESE 18:47:55 10° NE
IRS-1C Rocket 4.0 18:43:42 36° SSE 18:45:56 88° ENE 18:51:15 10° NNW
Cosmos 1844 Rocket 2.7 18:45:12 10° NNW 18:50:54 78° WSW 18:52:59 41° SSE
SL-16 R/B 2.7 18:49:17 10° SW 18:54:52 60° WNW 19:00:31 10° NNE
Landsat 5 3.8 18:50:50 10° N 18:55:19 70° WNW 18:59:44 10° SSW
Cosmos 1943 Rocket 4.3 18:55:07 10° N 18:56:55 11° NNE 18:57:29 11° NE
Cosmos 1092 Rocket 4.5 18:50:57 10° SSW 18:57:10 61° WNW 19:03:23 10° N
Resurs 01 Rocket 2.5 19:01:19 39° NNE 19:01:19 39° NNE 19:04:20 10° N
Terra 4.2 19:03:49 11° NNE 19:03:49 11° NNE 19:04:15 10° NNE
SJ-6B 3.7 19:02:07 41° WSW 19:02:31 42° W 19:06:09 10° NNW
H-2A R/B 3.7 19:07:12 32° N 19:07:12 32° N 19:09:21 10° N
Cosmos 2278 Rocket 3.5 19:01:25 10° NNW 19:05:42 26° NE 19:05:42 26° NE
Resurs 1-3 4.0 19:11:26 57° WSW 19:11:34 58° W 19:15:55 10° NNW
IRS-1A Rocket 4.3 19:15:25 67° NE 19:15:25 67° NE 19:20:58 10° N
SL-4 R/B 4.4 19:14:23 10° W 19:17:25 18° SW 19:17:51 17° SW
Cosmos 921 Rocket 4.5 19:13:01 10° NNW 19:15:35 31° N 19:15:35 31° N
Okean-O 3.9 19:20:29 34° SW 19:21:20 38° W 19:25:29 10° NNW
CZ-4 R/B 4.4 19:21:00 10° WSW 19:23:04 13° W 19:25:10 10° WNW
Cosmos 1486 Rocket 4.4 19:18:49 10° SW 19:24:06 63° WNW 19:29:25 10° NNE
Cosmos 1844 4.3 19:19:56 10° NW 19:25:18 50° WSW 19:26:13 45° SW
Cosmos 2266 Rocket 4.3 19:26:59 52° NE 19:26:59 52° NE 19:31:56 10° NNE
DNEPR-1 R/B 4.5 19:24:01 10° SW 19:28:47 59° NW 19:30:36 39° NNE
S3M 3.8 19:23:51 10° N 19:30:08 90° ENE 19:30:09 89° SSE
Cosmos 773 Rocket 4.3 19:26:27 10° NNW 19:31:00 65° NW 19:31:00 65° NW
Meteor 1-21 Rocket 4.3 19:26:43 10° NNW 19:31:34 68° NNW 19:31:34 68° NNW
Cosmos 2360 Rocket 2.7 19:33:52 10° SW 19:39:25 57° WNW 19:45:00 10° NNE
Lacrosse 4 Rocket 3.8 19:48:39 10° WSW 19:50:17 19° W 19:50:17 19° W
ATLAS 2AS CENTAUR R/B 3.7 19:55:08 10° NW 20:01:35 37° NNE 20:01:35 37° NNE
Cosmos 2322 Rocket 4.1 20:04:07 10° WSW 20:08:59 28° NW 20:13:52 10° NNE
NOSS 3-4 (A) 4.0 20:06:06 10° NW 20:12:04 69° WNW 20:12:04 69° WNW
NOSS 3-4 (C) 4.0 20:06:12 10° NW 20:12:10 69° WNW 20:12:10 69° WNW
USA 215 4.1 20:24:15 41° N 20:24:32 42° N 20:30:35 10° WNW
USA 281 3.9 20:27:40 47° N 20:27:40 47° N 20:32:14 10° NNW
Terra 4.5 20:42:43 15° NNW 20:42:43 15° NNW 20:43:31 10° NNW
Cosmos 1943 Rocket 4.3 20:37:04 10° NNW 20:38:59 21° N 20:38:59 21° N
Cosmos 2278 Rocket 4.1 20:45:08 10° NNW 20:47:32 26° NW 20:47:32 26° NW
ATLAS 2AS CENTAUR R/B 4.5 21:46:16 10° NW 21:49:00 25° NW 21:49:00 25° NW
